When you browse on this site, cookies collect data to enhance your experience and personalize the content and advertising you see.
Visit our Privacy Policy to learn more. By continuing to use the site, you agree to this use of cookies and data.
  • en France
  • Liste des pays
  • À 7 jours
  • Température de l'eau
  • Carte satellitaire
  • Carte météo
  • Widgets météo
  • user-avatar
    Se connecter

    Météo par heure à Buna

    Ce jour, 23 Mai, Jeudi

    Heure Température Précipitation Vent Pression Humidité
    00:00 +11°C° 0 mm 1 m/s 718 mmHg 92%
    01:00 +11°C° 0 mm 1 m/s 718 mmHg 93%
    02:00 +11°C° 0 mm 1 m/s 718 mmHg 92%
    03:00 +11°C° 0 mm 1 m/s 718 mmHg 92%
    04:00 +10°C° 0 mm 1 m/s 718 mmHg 91%
    05:00 +12°C° 0 mm 1 m/s 718 mmHg 87%
    06:00 +14°C° 0 mm 1 m/s 718 mmHg 82%
    07:00 +16°C° 0 mm 1 m/s 718 mmHg 78%
    08:00 +18°C° 0.6 mm 1 m/s 718 mmHg 74%
    09:00 +19°C° 0.6 mm 1 m/s 718 mmHg 69%
    10:00 +20°C° 0.6 mm 1 m/s 719 mmHg 65%
    11:00 +20°C° 1 mm 2 m/s 718 mmHg 65%
    12:00 +20°C° 1 mm 2 m/s 718 mmHg 65%
    13:00 +20°C° 1 mm 2 m/s 718 mmHg 65%
    14:00 +20°C° 1 mm 2 m/s 718 mmHg 67%
    15:00 +20°C° 1 mm 2 m/s 718 mmHg 68%
    16:00 +19°C° 1 mm 2 m/s 717 mmHg 70%
    17:00 +19°C° 0.9 mm 1 m/s 717 mmHg 75%
    18:00 +18°C° 0.9 mm 1 m/s 717 mmHg 80%
    19:00 +16°C° 0.9 mm 1 m/s 717 mmHg 86%
    20:00 +15°C° 0.2 mm 1 m/s 717 mmHg 86%
    21:00 +14°C° 0.2 mm 1 m/s 717 mmHg 86%
    22:00 +14°C° 0.2 mm 2 m/s 718 mmHg 87%
    23:00 +13°C° 0 mm 2 m/s 717 mmHg 87%

    Demain, 24 Mai, Vendredi

    Heure Température Précipitation Vent Pression Humidité
    00:00 +12°C° 0 mm 2 m/s 717 mmHg 87%
    01:00 +12°C° 0 mm 2 m/s 717 mmHg 88%
    02:00 +12°C° 0 mm 2 m/s 717 mmHg 88%
    03:00 +10°C° 0 mm 2 m/s 717 mmHg 88%
    04:00 +10°C° 0 mm 2 m/s 716 mmHg 88%
    05:00 +12°C° 0 mm 2 m/s 717 mmHg 85%
    06:00 +14°C° 0 mm 2 m/s 717 mmHg 82%
    07:00 +15°C° 0 mm 2 m/s 717 mmHg 79%
    08:00 +17°C° 0 mm 2 m/s 717 mmHg 73%
    09:00 +19°C° 0 mm 1 m/s 717 mmHg 66%
    10:00 +21°C° 0 mm 1 m/s 718 mmHg 59%
    11:00 +21°C° 0.4 mm 1 m/s 717 mmHg 59%
    12:00 +22°C° 0.4 mm 1 m/s 717 mmHg 60%
    13:00 +21°C° 0.4 mm 2 m/s 717 mmHg 60%
    14:00 +20°C° 1 mm 2 m/s 717 mmHg 64%
    15:00 +20°C° 1 mm 2 m/s 716 mmHg 67%
    16:00 +19°C° 1 mm 2 m/s 716 mmHg 71%
    17:00 +19°C° 0.6 mm 1 m/s 716 mmHg 76%
    18:00 +18°C° 0.6 mm 1 m/s 716 mmHg 81%
    19:00 +14°C° 0.6 mm 0 m/s 716 mmHg 86%
    20:00 +14°C° 0 mm 1 m/s 716 mmHg 87%
    21:00 +14°C° 0 mm 1 m/s 717 mmHg 88%
    22:00 +13°C° 0 mm 1 m/s 717 mmHg 88%
    23:00 +13°C° 0 mm 1 m/s 717 mmHg 88%

    Après-demain, 25 Mai, Samedi

    Heure Température Précipitation Vent Pression Humidité
    00:00 +12°C° 0 mm 1 m/s 717 mmHg 87%
    01:00 +12°C° 0 mm 1 m/s 717 mmHg 87%
    02:00 +12°C° 0 mm 1 m/s 717 mmHg 86%
    03:00 +11°C° 0 mm 1 m/s 717 mmHg 86%
    04:00 +11°C° 0 mm 1 m/s 717 mmHg 85%
    05:00 +13°C° 0 mm 1 m/s 717 mmHg 81%
    06:00 +14°C° 0 mm 1 m/s 717 mmHg 77%
    07:00 +16°C° 0 mm 1 m/s 718 mmHg 73%
    08:00 +18°C° 0 mm 1 m/s 718 mmHg 69%
    09:00 +20°C° 0 mm 1 m/s 718 mmHg 65%
    10:00 +21°C° 0 mm 1 m/s 718 mmHg 61%
    11:00 +21°C° 0 mm 2 m/s 718 mmHg 63%
    12:00 +21°C° 0 mm 2 m/s 718 mmHg 64%
    13:00 +21°C° 0 mm 2 m/s 718 mmHg 66%
    14:00 +21°C° 0.3 mm 2 m/s 718 mmHg 70%
    15:00 +20°C° 0.3 mm 2 m/s 718 mmHg 74%
    16:00 +19°C° 0.3 mm 2 m/s 717 mmHg 78%
    17:00 +18°C° 0.1 mm 2 m/s 717 mmHg 83%
    18:00 +18°C° 0.1 mm 1 m/s 717 mmHg 87%
    19:00 +15°C° 0.1 mm 0 m/s 717 mmHg 91%
    20:00 +14°C° 0 mm 0 m/s 717 mmHg 92%
    21:00 +14°C° 0 mm 1 m/s 717 mmHg 93%
    22:00 +14°C° 0 mm 1 m/s 718 mmHg 94%
    23:00 +14°C° 0 mm 1 m/s 718 mmHg 94%

    26 Mai, Dimanche

    Heure Température Précipitation Vent Pression Humidité
    00:00 +13°C° 0 mm 1 m/s 717 mmHg 93%
    01:00 +13°C° 0 mm 1 m/s 717 mmHg 93%
    02:00 +13°C° 0 mm 1 m/s 717 mmHg 92%
    03:00 +13°C° 0 mm 1 m/s 717 mmHg 91%
    04:00 +13°C° 0 mm 1 m/s 716 mmHg 89%
    05:00 +15°C° 0 mm 1 m/s 717 mmHg 86%
    06:00 +16°C° 0 mm 1 m/s 717 mmHg 82%
    07:00 +18°C° 0 mm 1 m/s 717 mmHg 78%
    08:00 +19°C° 0 mm 1 m/s 717 mmHg 70%
    09:00 +19°C° 0 mm 2 m/s 718 mmHg 63%
    10:00 +21°C° 0 mm 2 m/s 718 mmHg 55%
    11:00 +20°C° 0.3 mm 2 m/s 717 mmHg 63%
    12:00 +19°C° 0.3 mm 2 m/s 717 mmHg 70%
    13:00 +19°C° 0.3 mm 1 m/s 717 mmHg 78%
    14:00 +18°C° 0.5 mm 1 m/s 717 mmHg 80%
    15:00 +17°C° 0.5 mm 2 m/s 716 mmHg 82%
    16:00 +17°C° 0.5 mm 2 m/s 716 mmHg 85%
    17:00 +18°C° 0.2 mm 1 m/s 716 mmHg 85%
    18:00 +16°C° 0.2 mm 1 m/s 716 mmHg 85%
    19:00 +16°C° 0.2 mm 1 m/s 716 mmHg 85%
    20:00 +16°C° 0.3 mm 1 m/s 716 mmHg 85%
    21:00 +16°C° 0.3 mm 1 m/s 716 mmHg 86%
    22:00 +15°C° 0.3 mm 1 m/s 716 mmHg 86%
    23:00 +15°C° 0.5 mm 1 m/s 715 mmHg 87%

    27 Mai, Lundi

    Heure Température Précipitation Vent Pression Humidité
    00:00 +15°C° 0.5 mm 2 m/s 715 mmHg 88%
    01:00 +15°C° 0.5 mm 2 m/s 715 mmHg 89%
    02:00 +15°C° 0 mm 2 m/s 714 mmHg 87%
    03:00 +15°C° 0 mm 2 m/s 714 mmHg 86%
    04:00 +15°C° 0 mm 2 m/s 714 mmHg 84%
    05:00 +15°C° 0.8 mm 2 m/s 714 mmHg 86%
    06:00 +15°C° 0.8 mm 2 m/s 714 mmHg 89%
    07:00 +15°C° 0.8 mm 2 m/s 714 mmHg 91%
    08:00 +15°C° 1.5 mm 2 m/s 714 mmHg 92%
    09:00 +15°C° 1.5 mm 1 m/s 714 mmHg 92%
    10:00 +15°C° 1.5 mm 1 m/s 714 mmHg 92%
    11:00 +16°C° 0.5 mm 2 m/s 714 mmHg 85%
    12:00 +18°C° 0.5 mm 2 m/s 713 mmHg 78%
    13:00 +19°C° 0.5 mm 3 m/s 713 mmHg 71%
    14:00 +19°C° 0.1 mm 3 m/s 713 mmHg 74%
    15:00 +18°C° 0.1 mm 3 m/s 712 mmHg 77%
    16:00 +18°C° 0.1 mm 2 m/s 712 mmHg 80%
    17:00 +17°C° 0.1 mm 2 m/s 712 mmHg 81%
    18:00 +17°C° 0.1 mm 2 m/s 711 mmHg 81%
    19:00 +16°C° 0.1 mm 1 m/s 711 mmHg 82%
    20:00 +15°C° 0.3 mm 2 m/s 711 mmHg 84%
    21:00 +15°C° 0.3 mm 2 m/s 711 mmHg 87%
    22:00 +14°C° 0.3 mm 2 m/s 711 mmHg 89%
    23:00 +14°C° 0.8 mm 2 m/s 711 mmHg 91%

    28 Mai, Mardi

    Heure Température Précipitation Vent Pression Humidité
    00:00 +14°C° 0.8 mm 2 m/s 711 mmHg 93%
    01:00 +14°C° 0.8 mm 2 m/s 711 mmHg 95%
    02:00 +14°C° 0.7 mm 2 m/s 711 mmHg 95%
    03:00 +13°C° 0.7 mm 3 m/s 711 mmHg 95%
    04:00 +12°C° 0.7 mm 3 m/s 711 mmHg 95%
    05:00 +13°C° 0.2 mm 3 m/s 711 mmHg 92%
    06:00 +14°C° 0.2 mm 3 m/s 712 mmHg 89%
    07:00 +16°C° 0.2 mm 3 m/s 712 mmHg 85%
    08:00 +17°C° 0.4 mm 3 m/s 713 mmHg 83%
    09:00 +17°C° 0.4 mm 3 m/s 713 mmHg 81%
    10:00 +18°C° 0.4 mm 4 m/s 713 mmHg 79%
    11:00 +18°C° 0.6 mm 3 m/s 713 mmHg 80%
    12:00 +18°C° 0.6 mm 3 m/s 714 mmHg 81%
    13:00 +18°C° 0.6 mm 3 m/s 714 mmHg 81%
    14:00 +18°C° 0.3 mm 3 m/s 714 mmHg 80%
    15:00 +18°C° 0.3 mm 3 m/s 714 mmHg 79%
    16:00 +18°C° 0.3 mm 2 m/s 714 mmHg 78%
    17:00 +17°C° 0 mm 2 m/s 715 mmHg 81%
    18:00 +16°C° 0 mm 2 m/s 715 mmHg 85%
    19:00 +15°C° 0 mm 1 m/s 715 mmHg 89%
    20:00 +15°C° 0 mm 1 m/s 716 mmHg 89%
    21:00 +14°C° 0 mm 1 m/s 716 mmHg 90%
    22:00 +14°C° 0 mm 1 m/s 717 mmHg 91%
    23:00 +14°C° 0 mm 1 m/s 717 mmHg 89%
    Voir plus